Content
SEND FEEDBACK

Daily
Averages
Monthly
Summary
Mexico

CANCUN, QUINTANA ROO


Home > North America > Mexico > Quintana Roo
Elevation: 9 meters     Latitude: 21 09N     Longitude: 086 49W

WEATHER
 
SELECT A DAY
Number of Records: 167,222;   Date Range: 1/1/95 - 11/26/14
 
SHARE

PRINT THIS DATA

[ ← Previous Day ]
WEATHER ALMANAC - 5 OCTOBER, 2013
[ Next Day → ]
[ °F ]   °C
Weather ElementAverageHighLow
Temperature28.2 °C30 °C (10:48 am)26 °C (7:48 am)
Dewpoint24.9 °C25 °C (1:44 am)24 °C (6:43 am)
Humidity82.3 %94 % (7:48 am)70 % (3:45 pm)
Barometer1013.2 hPa1014.6 hPa (10:48 am)1011.9 hPa (4:44 pm)
Wind Speed10.6 km/h22.2 km/h (1:40 pm)
Weather ElementAverage
Visibility11.3 km
Wind DirectionESE (97.8 °)

Weather ElementTotal
Precipitation---
Cooling Degree Days9.7 (Base 18.3)
Growing Degree Days18 (Base 10)
Averaged from 23 records on 5 October, 2013
WEATHER CONDITIONS BREAKOUT
WIND DIRECTION BREAKOUT
WEATHER BY HOUR - 5 OCTOBER, 2013
[ °F ]   °C
Local TimeTemperatureDewpointHumidityBarometerVisibilityWind DirectionWind SpeedGust SpeedPrecipitationEventsConditions
1:44 AM27 °C25 °C89 %1013.5 hPa11.3 kmESE (110°)13 km/hMostly Cloudy
2:43 AM27 °C25 °C89 %1012.9 hPa11.3 kmSE (130°)11.1 km/hMostly Cloudy
3:46 AM27 °C25 °C89 %1012.2 hPa11.3 kmESE (120°)9.3 km/hMostly Cloudy
4:45 AM27 °C25 °C89 %1012.5 hPa11.3 kmESE (120°)9.3 km/hMostly Cloudy
5:44 AM27 °C25 °C89 %1012.9 hPa11.3 kmESE (110°)9.3 km/hMostly Cloudy
6:43 AM27 °C24 °C84 %1013.2 hPa11.3 kmENE (60°)9.3 km/hScattered Clouds
7:48 AM26 °C25 °C94 %1013.5 hPa11.3 kmCalmMostly Cloudy
8:42 AM29 °C25 °C79 %1014.2 hPa11.3 kmEast (90°)13 km/hMostly Cloudy
9:46 AM29 °C25 °C79 %1014.2 hPa11.3 kmEast (100°)13 km/hMostly Cloudy
10:48 AM30 °C25 °C74 %1014.6 hPa11.3 kmSE (140°)11.1 km/hScattered Clouds
11:47 AM30 °C25 °C74 %1014.2 hPa11.3 kmENE (60°)16.7 km/hScattered Clouds
12:47 PM30 °C25 °C74 %1013.5 hPa11.3 kmESE (110°)14.8 km/hScattered Clouds
1:40 PM30 °C25 °C74 %1012.9 hPa11.3 kmEast (80°)22.2 km/hMostly Cloudy
2:45 PM30 °C25 °C74 %1012.2 hPa11.3 kmESE (120°)13 km/hScattered Clouds
3:45 PM30 °C24 °C70 %1012.9 hPa11.3 kmESE (120°)18.5 km/hScattered Clouds
4:44 PM30 °C24 °C70 %1011.9 hPa11.3 kmESE (120°)11.1 km/hScattered Clouds
5:44 PM29 °C25 °C79 %1011.9 hPa11.3 kmSE (130°)9.3 km/hPartly Cloudy
6:42 PM28 °C25 °C84 %1012.2 hPa11.3 kmEast (100°)9.3 km/hPartly Cloudy
7:42 PM28 °C25 °C84 %1012.9 hPa11.3 kmEast (100°)9.3 km/hPartly Cloudy
8:41 PM28 °C25 °C84 %1013.5 hPa11.3 kmEast (100°)9.3 km/hPartly Cloudy
9:46 PM27 °C25 °C89 %1014.2 hPa11.3 kmEast (100°)7.4 km/hClear
10:43 PM27 °C25 °C89 %1013.9 hPa11.3 kmSE (130°)3.7 km/hPartly Cloudy
11:41 PM26 °C25 °C94 %1013.5 hPa11.3 kmCalmPartly Cloudy
Hourly data recorded from MMUN, located 0 kilometers away from Cancun, Quintana Roo







STORIES FROM OUR PARTNERS